Torna al catalogo

STARLINK-34218

AttivoComunicazioniVLEO
NORAD 64338·PAYLOAD·🇺🇸 United States

Lanciato Jun 10, 2025 da Cape Canaveral Space Force Station

Loading…

Prossimi Passaggi (prossime 24 ore)

TLE

AggiornatoSource: CelesTrak SupGP

Epoca: Sep 15, 2026, 02:53 UTC

1 64338C 25124X   26258.12062500  .00059255  00000+0  21462-2 0  2587
2 64338  42.9996 128.2846 0001490 276.6600  68.8277 15.27549440    17

Traccia STARLINK-34218 in tempo reale con AllMySat

Download on the App Store